[[{"header":{"parameterUnit":"m.s-1","parameterCategory":1,"la1":30.2991,"la2":30.254,"lo1":-89.0895,"lo2":-89.0444,"dy":0.0017,"dx":0.0017,"nx":28,"ny":28,"refTime":"2023-08-08T09:00:00:Z","depth":0,"parameterNumber":2,"parameterNumberName":"U-component_of_WINDS"},"data":[0,0,0,0,0,0,0,0,0,0,0,0,0,0,0,0,0,0,0,0,0,0,0,0,0,0,0,0,0,0,0,0,0,0,0,0,0,0,0,0,0,0,0,0,0,0,0,0,0,0,0,0,0,0,0,0,0,0,3.4684,3.4685,0,3.4798,3.4799,3.48,3.481,3.4809,3.4808,3.4806,3.4926,3.493,3.4935,0,0,0,0,0,0,0,0,0,0,0,0,0,3.4478,3.4482,3.4684,3.4685,3.4687,3.4797,3.4799,3.4801,3.481,3.4809,3.4807,3.4806,3.4925,3.493,3.4935,0,0,0,0,0,0,0,0,0,0,0,0,0,3.4577,3.4483,3.4684,3.4705,3.4708,3.4797,3.4799,3.4801,3.4811,3.4809,3.4807,3.4805,3.4923,3.4929,3.4936,3.5013,0,0,3.4955,3.4958,0,0,0,0,0,0,0,0,3.4572,3.4585,3.47,3.4704,3.4707,3.4788,3.477,3.4872,3.4811,3.4772,3.4806,3.4804,3.4882,3.4891,3.4917,3.5018,3.5023,3.4956,3.496,3.4963,3.4965,0,0,0,0,0,0,0,3.4565,3.458,3.4729,3.4702,3.4706,3.471,3.4722,3.479,3.4836,3.4775,3.4776,3.4789,3.4883,3.4911,3.492,3.5025,3.4956,3.4962,3.4966,3.4968,3.5197,3.5199,0,0,0,0,0,0,3.4554,3.4574,3.4725,3.4732,3.4633,3.4715,3.4728,3.4764,3.4835,3.4844,3.4791,3.4789,3.4901,3.4912,3.4924,3.502,3.4963,3.4969,3.4973,3.5194,3.5197,3.5199,0,0,0,0,0,0,3.4549,3.4567,3.4721,3.4654,3.4674,3.472,3.476,3.4767,3.4794,3.4847,3.4855,3.481,3.49,3.4915,3.4991,3.5024,3.4972,3.4978,3.5192,3.5195,3.5198,3.5211,0,0,0,0,0,0,3.4543,3.4565,3.4594,3.4654,3.4677,3.4784,3.4762,3.4771,3.4805,3.4804,3.4867,3.4876,3.4899,3.4981,3.4997,3.5032,3.4983,3.5189,3.5193,3.5197,3.5208,3.5214,3.522,0,0,0,0,0,3.4536,3.4593,3.4595,3.4614,3.4714,3.4786,3.4799,3.4824,3.4808,3.4838,3.4872,3.4874,3.5018,3.4988,3.5007,3.5044,3.5187,3.5192,3.5197,3.5205,3.5213,3.522,0,0,0,0,0,0,3.4537,3.4602,3.4605,3.4683,3.4729,3.4788,3.4826,3.4832,3.4884,3.4881,3.491,3.4925,3.5,3.5029,3.4996,3.5123,3.5101,3.511,3.5101,3.5109,3.5115,3.5106,3.4988,0,0,0,0,0,3.4546,3.4598,3.4653,3.4717,3.474,3.4779,3.4811,3.4827,3.4876,3.4895,3.4935,3.4983,3.5039,3.5076,3.513,3.5212,3.5227,3.5247,3.5253,3.5258,3.5265,3.5312,3.5322,3.5216,3.5215,3.5215,0,0,3.4566,3.4608,3.4639,3.4718,3.4755,3.481,3.4795,3.4853,3.4895,3.4904,3.4978,3.5009,3.5065,3.5144,3.5181,3.5172,3.5298,3.5264,3.5267,3.5272,3.5318,3.5328,3.5337,3.5219,3.5218,3.5218,0,0,3.463,3.4667,3.4725,3.4762,3.4819,3.4845,3.4859,3.4917,3.4937,3.5011,3.502,3.507,3.5166,3.5206,3.5239,3.5319,3.5324,3.5336,3.5368,3.5413,3.5422,3.5429,3.5459,3.5469,3.5343,3.5343,3.5343,0,3.4648,3.473,3.4754,3.4812,3.4847,3.4858,3.4918,3.4953,3.5025,3.505,3.5037,3.5159,3.5197,3.5286,3.5306,3.5332,3.535,3.5329,3.5418,3.5426,3.5434,3.5462,3.5473,3.5345,3.5344,3.5344,3.5344,0,3.475,3.4806,3.4847,3.4915,3.4954,3.5013,3.5047,3.5085,3.5097,3.5124,3.5201,3.5247,3.5312,3.5334,3.5347,3.5426,3.5418,3.5412,3.539,3.5445,3.5472,3.5483,3.5346,3.5346,3.5346,3.5345,0,0,3.4818,3.4899,3.4913,3.4945,3.5008,3.5053,3.5113,3.5175,3.5207,3.5257,3.5308,3.539,3.5384,3.5421,3.5439,3.5478,3.554,3.5467,3.5469,3.548,3.5632,3.5637,3.5649,3.5544,3.5546,3.5547,3.5628,0,3.489,3.4995,3.5019,3.5111,3.5164,3.5175,3.5228,3.5273,3.5301,3.5351,3.5382,3.5439,3.5427,3.545,3.549,3.5524,3.5572,3.5519,3.5593,3.5596,3.5579,3.5664,3.5669,3.5742,3.5639,3.564,3.5642,0,3.4988,3.5039,3.5135,3.5192,3.5216,3.5262,3.5322,3.5369,3.5421,3.5439,3.5481,3.5494,3.5558,3.5533,3.5622,3.5586,3.5618,3.564,3.5643,3.5652,3.5622,3.5675,3.5766,3.5777,3.5659,3.5657,3.5656,0,3.5029,3.5122,3.5192,3.5218,3.5287,3.5319,3.5349,3.5399,3.5436,3.5488,3.5512,3.5572,3.5605,3.5651,3.5681,3.5659,3.5769,3.5745,3.5786,3.5785,3.5809,3.5807,3.5907,3.5828,3.5828,3.5828,3.5828,0,3.5107,3.5166,3.5211,3.5254,3.5321,3.5349,3.5414,3.5445,3.549,3.554,3.5553,3.56,3.5636,3.5689,3.5712,3.5783,3.5798,3.5815,3.5821,3.5814,3.5812,3.5836,3.5832,3.5831,3.583,3.583,3.5829,0,3.5165,3.5197,3.5274,3.5332,3.5349,3.5395,3.5446,3.5489,3.5517,3.558,3.5597,3.5641,3.5704,3.5737,3.5816,3.5832,3.5912,3.5915,3.5894,3.5897,3.5936,3.5932,3.6055,3.6073,3.5981,3.5982,3.5983,0,3.5213,3.5258,3.5321,3.5356,3.5386,3.5441,3.5478,3.5508,3.5546,3.5609,3.5645,3.5708,3.576,3.5859,3.5899,3.596,3.5965,3.6004,3.5974,3.5966,3.5966,3.5963,3.5969,3.6009,3.601,3.601,3.6011,0,3.5295,3.5309,3.5361,3.542,3.5464,3.5511,3.5558,3.5586,3.5623,3.5666,3.5729,3.577,3.585,3.5913,3.5976,3.6009,3.6017,3.602,3.6033,3.6027,3.6013,3.6022,3.5909,3.6017,3.6017,3.6016,3.6016,3.6016,3.535,3.5392,3.5443,3.5501,3.5539,3.5583,3.5627,3.566,3.5713,3.578,3.5794,3.5862,3.5914,3.6,3.6035,3.6089,3.6081,3.61,3.6104,3.6109,3.6111,3.6004,3.61,3.61,3.61,3.61,3.61,0,3.5434,3.5468,3.5521,3.5586,3.5632,3.5635,3.5687,3.5726,3.5785,3.5832,3.5883,3.5957,3.6018,3.6063,3.6126,3.6161,3.6166,3.6177,3.6175,3.6182,3.6113,3.6096,3.6171,3.6171,3.6171,3.6171,3.6171,3.6171,3.5483,3.5554,3.5574,3.5664,3.5697,3.5763,3.5793,3.5834,3.5872,3.5953,3.6004,3.6032,3.6079,3.6146,3.6203,3.6215,3.6237,3.6248,3.626,3.6195,3.6187,3.618,3.6164,3.6252,3.6252,3.6325,3.6325,3.6326]},{"header":{"parameterUnit":"m.s-1","parameterCategory":1,"la1":30.2991,"la2":30.254,"lo1":-89.0895,"lo2":-89.0444,"dy":0.0017,"dx":0.0017,"nx":28,"ny":28,"refTime":"2023-08-08T09:00:00:Z","depth":0,"parameterNumber":3,"parameterNumberName":"V-component_of_WINDS"},"data":[0,0,0,0,0,0,0,0,0,0,0,0,0,0,0,0,0,0,0,0,0,0,0,0,0,0,0,0,0,0,0,0,0,0,0,0,0,0,0,0,0,0,0,0,0,0,0,0,0,0,0,0,0,0,0,0,0,0,1.4393,1.4393,0,1.4328,1.4327,1.4327,1.4272,1.4271,1.4271,1.427,1.4201,1.42,1.4198,0,0,0,0,0,0,0,0,0,0,0,0,0,1.4468,1.4467,1.4393,1.4393,1.4392,1.4328,1.4327,1.4327,1.4272,1.4271,1.427,1.427,1.4201,1.42,1.4198,0,0,0,0,0,0,0,0,0,0,0,0,0,1.4423,1.4467,1.4394,1.4357,1.4353,1.4329,1.4327,1.4326,1.4272,1.4271,1.427,1.4269,1.4202,1.42,1.4198,1.4204,0,0,1.4192,1.4191,0,0,0,0,0,0,0,0,1.4425,1.442,1.4363,1.4359,1.4355,1.4307,1.4328,1.4285,1.4272,1.4303,1.427,1.4269,1.4237,1.4232,1.4222,1.42,1.4198,1.4192,1.4191,1.419,1.4189,0,0,0,0,0,0,0,1.4428,1.4422,1.4367,1.4362,1.4357,1.4343,1.4336,1.432,1.4275,1.43,1.4296,1.4289,1.4234,1.4224,1.422,1.4196,1.4192,1.419,1.4189,1.4188,1.4177,1.4177,0,0,0,0,0,0,1.4438,1.4425,1.437,1.4366,1.4389,1.4342,1.4334,1.4323,1.4275,1.4267,1.429,1.4287,1.4227,1.4222,1.4217,1.422,1.419,1.4188,1.4187,1.4176,1.4177,1.4178,0,0,0,0,0,0,1.4439,1.4433,1.4372,1.4394,1.4385,1.4342,1.4331,1.4323,1.4312,1.4268,1.4259,1.4287,1.4226,1.422,1.4208,1.4217,1.4187,1.4185,1.4175,1.4176,1.4177,1.4227,0,0,0,0,0,0,1.4442,1.4434,1.4436,1.4395,1.4385,1.4365,1.4331,1.4322,1.4309,1.4304,1.4263,1.4255,1.4225,1.4211,1.4206,1.4214,1.4184,1.4174,1.4175,1.4177,1.4225,1.423,1.4235,0,0,0,0,0,1.4445,1.4453,1.4437,1.443,1.4387,1.4365,1.4359,1.4325,1.431,1.4311,1.4283,1.4257,1.4217,1.421,1.4204,1.4212,1.4173,1.4175,1.4177,1.4222,1.4229,1.4235,0,0,0,0,0,0,1.4495,1.4446,1.4428,1.4423,1.4399,1.4356,1.4357,1.4334,1.4313,1.4309,1.4267,1.4258,1.425,1.423,1.4223,1.4215,1.4191,1.4192,1.4228,1.4234,1.4239,1.4244,1.4182,0,0,0,0,0,1.4506,1.4494,1.4451,1.4451,1.444,1.4401,1.439,1.4366,1.4339,1.4328,1.4299,1.4273,1.4255,1.4243,1.4224,1.4222,1.4212,1.4224,1.4229,1.4234,1.4235,1.4232,1.4236,1.4184,1.4184,1.4184,0,0,1.4528,1.45,1.4494,1.446,1.4439,1.4426,1.4393,1.4381,1.4371,1.4326,1.4313,1.4291,1.4259,1.4252,1.4247,1.4235,1.4247,1.4236,1.424,1.4238,1.4234,1.4239,1.4244,1.4185,1.4185,1.4185,0,0,1.4561,1.4539,1.4536,1.4515,1.4483,1.4457,1.4457,1.4418,1.4402,1.4388,1.4355,1.4342,1.4311,1.429,1.4275,1.4301,1.4275,1.4296,1.4322,1.432,1.4324,1.4328,1.4336,1.434,1.4297,1.4297,1.4297,0,1.4592,1.4572,1.4537,1.4528,1.4514,1.4474,1.447,1.4452,1.4415,1.4406,1.4392,1.4353,1.4329,1.4316,1.4322,1.4312,1.4309,1.43,1.4327,1.433,1.4332,1.434,1.4344,1.43,1.4299,1.4299,1.4299,0,1.4612,1.4599,1.46,1.4567,1.4553,1.4546,1.451,1.45,1.4477,1.4452,1.4439,1.4409,1.4382,1.4378,1.4355,1.4362,1.4355,1.4335,1.431,1.4341,1.4347,1.435,1.4304,1.4303,1.4302,1.4301,0,0,1.4674,1.4622,1.4623,1.4607,1.457,1.4559,1.455,1.4526,1.4518,1.4494,1.4485,1.4461,1.4442,1.4425,1.44,1.4398,1.442,1.4377,1.4376,1.4386,1.4425,1.444,1.4445,1.4403,1.4404,1.4404,1.4428,0,1.4701,1.4684,1.4653,1.4646,1.4633,1.4596,1.4588,1.4564,1.4541,1.4526,1.45,1.4483,1.446,1.445,1.4446,1.4418,1.4427,1.4416,1.4394,1.4394,1.4403,1.4448,1.4464,1.4488,1.443,1.4431,1.4431,0,1.4729,1.4709,1.4701,1.4665,1.4658,1.4652,1.4627,1.4614,1.4586,1.4569,1.4551,1.4523,1.4512,1.449,1.4474,1.4467,1.4456,1.4441,1.4441,1.4437,1.4414,1.4445,1.4495,1.4498,1.4435,1.4434,1.4434,0,1.4775,1.4746,1.4737,1.4725,1.4683,1.4679,1.4661,1.4632,1.4619,1.4597,1.4588,1.4565,1.4552,1.4534,1.4501,1.4489,1.4488,1.4464,1.4473,1.4474,1.4474,1.4474,1.4522,1.4468,1.4468,1.4468,1.4468,0,1.4808,1.4805,1.4758,1.4752,1.4748,1.4711,1.4707,1.4685,1.466,1.4649,1.4615,1.4605,1.4562,1.4548,1.4521,1.4511,1.4506,1.4491,1.4484,1.4494,1.4496,1.4486,1.4484,1.4469,1.4469,1.4468,1.4468,0,1.4858,1.4827,1.4815,1.4776,1.4766,1.4764,1.473,1.4723,1.4699,1.4686,1.4681,1.4641,1.4623,1.4588,1.4559,1.4541,1.4537,1.4525,1.4547,1.4542,1.4553,1.4553,1.4596,1.46,1.4544,1.4545,1.4545,0,1.4881,1.4878,1.4839,1.483,1.4813,1.4799,1.4786,1.475,1.4738,1.4706,1.4703,1.4682,1.4663,1.4634,1.4603,1.458,1.4567,1.4584,1.4564,1.4574,1.4567,1.4568,1.4567,1.4589,1.459,1.459,1.4591,0,1.4925,1.4909,1.4893,1.4871,1.4857,1.4838,1.4817,1.4811,1.477,1.4758,1.4739,1.4725,1.4696,1.4675,1.4648,1.4628,1.4603,1.4598,1.4598,1.4608,1.4621,1.4614,1.4559,1.4597,1.4596,1.4596,1.4595,1.4595,1.4961,1.4957,1.4929,1.4912,1.4892,1.4874,1.4866,1.4841,1.4824,1.4799,1.4778,1.4761,1.4732,1.4694,1.4676,1.4661,1.4649,1.465,1.465,1.4651,1.4655,1.4624,1.4656,1.4656,1.4656,1.4655,1.4655,0,1.5003,1.4983,1.4968,1.494,1.4927,1.4905,1.4881,1.4871,1.4856,1.4832,1.4815,1.4793,1.4773,1.474,1.4717,1.4711,1.4699,1.4706,1.4706,1.4702,1.4668,1.4669,1.4717,1.4717,1.4717,1.4717,1.4717,1.4717,1.5023,1.5014,1.4996,1.4977,1.4957,1.4941,1.4929,1.4911,1.4892,1.487,1.4853,1.4832,1.4805,1.478,1.476,1.4751,1.4744,1.4755,1.4742,1.471,1.4704,1.4699,1.47,1.4754,1.4754,1.4777,1.4778,1.4778]}]]